TimeMST,TemperatureF,Dew PointF,Humidity,Sea Level PressureIn,VisibilityMPH,Wind Direction,Wind SpeedMPH,Gust SpeedMPH,PrecipitationIn,Events,Conditions,WindDirDegrees,DateUTC
12:54 AM,44.1,10.0,25,29.99,10.0,West,9.2,-,N/A,,Clear,260,2012-11-21 07:54:00
1:54 AM,42.1,10.9,28,29.99,10.0,WSW,15.0,-,N/A,,Clear,240,2012-11-21 08:54:00
2:54 AM,41.0,10.0,28,29.98,10.0,West,5.8,-,N/A,,Clear,260,2012-11-21 09:54:00
3:54 AM,36.0,10.0,34,30.01,10.0,NW,9.2,-,N/A,,Clear,310,2012-11-21 10:54:00
4:54 AM,37.9,10.0,32,30.03,10.0,WSW,12.7,-,N/A,,Clear,250,2012-11-21 11:54:00
5:54 AM,34.0,10.0,37,30.06,10.0,West,11.5,-,N/A,,Clear,280,2012-11-21 12:54:00
6:54 AM,35.1,10.0,35,30.08,10.0,WNW,11.5,-,N/A,,Clear,300,2012-11-21 13:54:00
7:54 AM,42.1,9.0,26,30.05,10.0,West,13.8,-,N/A,,Clear,270,2012-11-21 14:54:00
8:54 AM,53.1,10.0,18,29.99,10.0,West,9.2,-,N/A,,Clear,270,2012-11-21 15:54:00
9:54 AM,63.0,6.1,11,29.96,10.0,West,9.2,-,N/A,,Clear,270,2012-11-21 16:54:00
10:49 AM,69.8,3.2,7,30.08,10.0,West,12.7,-,N/A,,Clear,260,2012-11-21 17:49:00
10:54 AM,70.0,3.0,7,29.91,10.0,West,13.8,-,N/A,,Clear,260,2012-11-21 17:54:00
11:54 AM,72.0,3.0,7,29.86,10.0,WNW,5.8,-,N/A,,Clear,300,2012-11-21 18:54:00
12:54 PM,72.0,1.9,6,29.84,10.0,Variable,5.8,-,N/A,,Clear,0,2012-11-21 19:54:00
1:54 PM,72.0,1.0,6,29.83,10.0,ESE,9.2,-,N/A,,Clear,110,2012-11-21 20:54:00
2:54 PM,72.0,-2.9,5,29.82,10.0,SE,10.4,-,N/A,,Clear,140,2012-11-21 21:54:00
3:54 PM,69.1,-2.9,6,29.83,10.0,SW,4.6,-,N/A,,Clear,220,2012-11-21 22:54:00
4:54 PM,61.0,-2.9,8,29.86,10.0,NNW,5.8,-,N/A,,Clear,330,2012-11-21 23:54:00
5:54 PM,55.9,-2.0,9,29.91,10.0,NNW,5.8,-,N/A,,Clear,340,2012-11-22 00:54:00
6:54 PM,54.0,1.0,12,29.90,10.0,WSW,12.7,-,N/A,,Clear,250,2012-11-22 01:54:00
7:54 PM,50.0,1.0,13,29.90,10.0,West,15.0,-,N/A,,Clear,260,2012-11-22 02:54:00
8:54 PM,48.9,1.0,14,29.88,10.0,West,13.8,-,N/A,,Clear,280,2012-11-22 03:54:00
9:54 PM,48.9,1.0,14,29.83,10.0,West,15.0,-,N/A,,Clear,260,2012-11-22 04:54:00
10:54 PM,42.1,1.9,19,29.82,10.0,West,12.7,-,N/A,,Clear,270,2012-11-22 05:54:00
11:54 PM,42.1,3.0,20,29.81,10.0,West,13.8,-,N/A,,Clear,270,2012-11-22 06:54:00